User: anonymous   Login
Location: Montreal
(45.5000°N, 73.5833°W)
Time: 05:13:44
(UTC-05:00)
Language:

Tiangong 1 - Orbit

View from above orbital plane
View from above orbital plane
View from above satellite
View from above satellite

Ground track
Ground track

The orbit data is extracted from the following two-line orbital elements,

1 37820U 11053A   17347.83446759  .00064597  98616-5  16435-3 0  9996
2 37820  42.7540 169.2082 0020130 288.2994 264.8323 15.94822880356481
Epoch (UTC): 13 December 2017 20:01:38
Eccentricity: 0.0020130
inclination: 42.7540°
perigee height: 275 km
apogee height: 302 km
right ascension of ascending node: 169.2082°
argument of perigee: 288.2994°
revolutions per day: 15.94822880
mean anomaly at epoch: 264.8323°
orbit number at epoch: 35648

The dashed part of the orbit path shows where the satellite is in the earth's shadow,  

DLR